Date String (YYYY-MM-DD hh:mm:ss) UTC,Instrument flags,Ambient pressure (hPa),Sample flow (lpm),Bypass flow (lpm),Sample temperature (°C),Ambient temperature (°C),ASC tube jacket temperature (°C),LED temperature (°C),Box temperature (°C),Sample RH (%),Span deviation,Mass concentration (μg/m³),Mass concentration (μg/m³),Mass concentration (μg/m³)
DateTimeUTC,F1_M11,P_M11,Q1_M11,Q2_M11,T1_M11,T2_M11,T3_M11,T4_M11,T5_M11,U1_M11,ZSPAN_M11,X0_M11,X2_M11,X1_M11
2023-02-03 17:00:00,,0831.2,4.99,0.00,23.8,22.9,00.0,32.5,25.6,06.1,0000.0,0002.93,0001.08,0000.48
2023-02-03 17:01:00,,0831.1,4.99,0.00,23.9,22.9,00.0,32.5,25.7,06.2,0000.0,0002.95,0001.04,0000.47
2023-02-03 17:02:00,,0831.2,5.01,0.00,23.9,22.9,00.0,32.5,25.7,06.2,0000.0,0003.52,0001.04,0000.47
2023-02-03 17:03:00,,0831.2,5.00,0.00,23.9,22.9,00.0,32.6,25.7,06.3,0000.0,0003.08,0000.98,0000.47
2023-02-03 17:04:00,,0831.2,4.98,0.00,23.9,22.9,00.0,32.6,25.7,06.3,0000.0,0003.64,0000.96,0000.47
2023-02-03 17:05:00,,0831.2,5.00,0.00,23.9,23.0,00.0,32.6,25.7,06.2,0000.0,0003.64,0000.91,0000.47
2023-02-03 17:06:00,,0831.2,5.00,0.00,24.0,23.0,00.0,32.6,25.8,06.5,0000.0,0003.59,0000.88,0000.47
2023-02-03 17:07:00,,0831.2,5.00,0.00,24.0,23.0,00.0,32.6,25.8,06.4,0000.0,0003.65,0000.89,0000.48
2023-02-03 17:08:00,,0831.2,4.99,0.00,24.0,23.0,00.0,32.7,25.9,06.3,0000.0,0003.74,0000.88,0000.48
2023-02-03 17:09:00,,0831.2,4.99,0.00,24.0,23.0,00.0,32.7,25.9,06.1,0000.0,0003.73,0000.87,0000.48
2023-02-03 17:10:00,,0831.2,5.00,0.00,24.0,23.0,00.0,32.7,25.9,06.1,0000.0,0003.67,0000.85,0000.48
2023-02-03 17:11:00,,0831.2,5.01,0.00,24.0,23.0,00.0,32.7,25.9,05.8,0000.0,0003.64,0000.84,0000.48
2023-02-03 17:12:00,,0831.2,4.99,0.00,24.1,23.1,00.0,32.7,25.9,06.2,0000.0,0003.62,0000.88,0000.49
2023-02-03 17:13:00,,0831.2,4.99,0.00,24.1,23.1,00.0,32.8,26.0,07.1,0000.0,0002.92,0000.88,0000.48
2023-02-03 17:14:00,,0831.1,5.00,0.00,24.1,23.1,00.0,32.8,26.0,08.0,0000.0,0003.04,0000.94,0000.49
2023-02-03 17:15:00,,0831.1,5.00,0.00,24.1,23.2,00.0,32.8,26.0,07.7,0000.0,0002.48,0000.99,0000.49
2023-02-03 17:16:00,,0831.1,5.00,0.00,24.1,23.2,00.0,32.8,26.0,07.2,0000.0,0002.36,0001.05,0000.49
2023-02-03 17:17:00,,0831.2,5.02,0.00,24.2,23.2,00.0,32.8,26.1,07.2,0000.0,0002.22,0001.00,0000.49
2023-02-03 17:18:00,,0831.1,5.00,0.00,24.2,23.2,00.0,32.9,26.1,07.0,0000.0,0002.38,0001.04,0000.50
2023-02-03 17:19:00,,0831.0,5.00,0.00,24.2,23.3,00.0,32.9,26.1,07.0,0000.0,0002.49,0001.10,0000.50
2023-02-03 17:20:00,,0831.1,4.99,0.00,24.2,23.3,00.0,32.9,26.1,06.6,0000.0,0002.57,0001.15,0000.51
2023-02-03 17:21:00,,0831.0,5.00,0.00,24.3,23.3,00.0,32.9,26.2,06.3,0000.0,0002.76,0001.20,0000.52
2023-02-03 17:22:00,,0831.0,5.00,0.00,24.3,23.4,00.0,32.9,26.2,06.8,0000.0,0002.76,0001.21,0000.52
2023-02-03 17:23:00,,0831.0,5.01,0.00,24.3,23.4,00.0,33.0,26.2,06.8,0000.0,0002.82,0001.23,0000.52
2023-02-03 17:24:00,,0831.0,5.00,0.00,24.3,23.4,00.0,33.0,26.2,06.7,0000.0,0002.82,0001.21,0000.52
2023-02-03 17:25:00,,0831.0,5.01,0.00,24.4,23.5,00.0,33.0,26.3,06.0,0000.0,0002.82,0001.20,0000.52
2023-02-03 17:26:00,,0831.1,4.99,0.00,24.4,23.5,00.0,33.0,26.3,06.7,0000.0,0002.72,0001.16,0000.51
2023-02-03 17:27:00,,0831.0,5.01,0.00,24.4,23.5,00.0,33.0,26.3,05.8,0000.0,0002.56,0001.08,0000.51
2023-02-03 17:28:00,,0831.0,5.00,0.00,24.4,23.5,00.0,33.1,26.3,06.1,0000.0,0002.77,0001.14,0000.51
2023-02-03 17:29:00,,0831.0,5.01,0.00,24.5,23.5,00.0,33.1,26.4,06.1,0000.0,0002.82,0001.12,0000.51
2023-02-03 17:30:00,,0830.9,5.00,0.00,24.5,23.6,00.0,33.1,26.4,06.2,0000.0,0002.55,0001.05,0000.51
2023-02-03 17:31:00,,0830.9,4.99,0.00,24.5,23.5,00.0,33.1,26.4,06.6,0000.0,0002.91,0001.07,0000.50
2023-02-03 17:32:00,,0831.0,5.00,0.00,24.5,23.6,00.0,33.2,26.4,06.5,0000.0,0003.01,0001.00,0000.50
2023-02-03 17:33:00,,0830.9,5.01,0.00,24.5,23.6,00.0,33.2,26.4,06.5,0000.0,0003.59,0001.01,0000.50
2023-02-03 17:34:00,,0830.9,5.00,0.00,24.5,23.6,00.0,33.2,26.5,06.9,0000.0,0003.45,0000.96,0000.50
2023-02-03 17:35:00,,0830.9,5.01,0.00,24.6,23.6,00.0,33.2,26.5,06.9,0000.0,0003.45,0000.94,0000.50
2023-02-03 17:36:00,,0830.9,5.01,0.00,24.6,23.6,00.0,33.2,26.5,06.9,0000.0,0003.40,0000.92,0000.50
2023-02-03 17:37:00,,0830.9,5.00,0.00,24.6,23.6,00.0,33.3,26.5,06.6,0000.0,0003.37,0000.92,0000.50
2023-02-03 17:38:00,,0830.9,5.00,0.00,24.6,23.7,00.0,33.3,26.5,05.8,0000.0,0003.48,0000.93,0000.50
2023-02-03 17:39:00,,0830.9,5.00,0.00,24.6,23.7,00.0,33.3,26.5,06.1,0000.0,0003.49,0000.91,0000.49
2023-02-03 17:40:00,,0830.9,4.99,0.00,24.7,23.7,00.0,33.3,26.5,06.3,0000.0,0003.65,0000.91,0000.48
2023-02-03 17:41:00,,0830.9,4.99,0.00,24.7,23.7,00.0,33.3,26.6,06.3,0000.0,0004.13,0000.93,0000.47
2023-02-03 17:42:00,,0830.9,5.00,0.00,24.7,23.7,00.0,33.4,26.6,06.9,0000.0,0003.75,0000.90,0000.47
2023-02-03 17:43:00,,0830.8,5.01,0.00,24.7,23.7,00.0,33.4,26.6,07.3,0000.0,0003.50,0000.93,0000.47
2023-02-03 17:44:00,,0830.8,5.02,0.00,24.7,23.7,00.0,33.4,26.6,06.0,0000.0,0003.05,0000.91,0000.47
2023-02-03 17:45:00,,0830.8,4.98,0.00,24.7,23.8,00.0,33.4,26.6,05.8,0000.0,0003.03,0000.91,0000.47
2023-02-03 17:46:00,,0830.7,4.98,0.00,24.8,23.8,00.0,33.4,26.6,05.4,0000.0,0003.04,0000.95,0000.47
2023-02-03 17:47:00,,0830.7,5.01,0.00,24.8,23.8,00.0,33.5,26.7,05.2,0000.0,0002.95,0000.94,0000.47
2023-02-03 17:48:00,,0830.7,4.99,0.00,24.8,23.8,00.0,33.5,26.7,05.0,0000.0,0002.99,0000.97,0000.47
2023-02-03 17:49:00,,0830.7,5.02,0.00,24.8,23.8,00.0,33.5,26.7,05.7,0000.0,0002.92,0000.98,0000.48
2023-02-03 17:50:00,,0830.7,5.01,0.00,24.8,23.8,00.0,33.5,26.7,06.2,0000.0,0002.71,0000.93,0000.48
2023-02-03 17:51:00,,0830.7,5.01,0.00,24.9,23.8,00.0,33.5,26.7,05.7,0000.0,0002.18,0000.87,0000.48
2023-02-03 17:52:00,,0830.6,5.01,0.00,24.9,23.9,00.0,33.5,26.7,06.1,0000.0,0001.88,0000.89,0000.48
2023-02-03 17:53:00,,0830.6,4.98,0.00,24.9,23.9,00.0,33.6,26.7,05.9,0000.0,0002.07,0000.94,0000.49
2023-02-03 17:54:00,,0830.5,4.99,0.00,24.9,23.9,00.0,33.6,26.7,06.4,0000.0,0002.25,0000.97,0000.47
2023-02-03 17:55:00,,0830.6,4.99,0.00,24.9,23.8,00.0,33.6,26.7,05.6,0000.0,0002.30,0000.99,0000.46
2023-02-03 17:56:00,,0830.5,5.02,0.00,24.9,23.8,00.0,33.6,26.6,05.8,0000.0,0002.29,0000.99,0000.46
2023-02-03 17:57:00,,0830.5,5.01,0.00,24.9,23.8,00.0,33.6,26.6,06.0,0000.0,0002.19,0000.94,0000.45
2023-02-03 17:58:00,,0830.5,5.00,0.00,24.9,23.8,00.0,33.6,26.6,05.5,0000.0,0002.07,0000.90,0000.44
2023-02-03 17:59:00,,0830.4,4.98,0.00,24.9,23.8,00.0,33.7,26.6,05.0,0000.0,0001.97,0000.85,0000.43
